Location: Raven Hill Discovery Center
(45.1336°N, 85.0553°W)
Time: 15:48:49
(UTC-04:00)

Daily predictions for brighter satellites

Satellite Brightness Start Highest point End
(mag) Time Altitude Azimuth Time Altitude Azimuth Time Altitude Azimuth
ATLAS CENTAUR R/B 4.3 21:24:50 10° SSW 21:31:04 58° ESE 21:49:20 10° NE
Okean 1 3.9 21:47:20 10° SSW 21:51:22 62° W 21:55:25 10° N
Cosmos 990 Rocket 4.0 21:47:21 10° NNW 21:52:36 79° ENE 21:57:50 10° SSE
Resurs 01 Rocket 2.2 21:48:15 10° S 21:52:36 61° W 21:56:58 10° NNW
ATLAS 3B R/B 3.5 21:45:58 10° SW 21:53:02 61° NW 21:59:51 10° NNE
H-2A R/B 2.7 21:49:13 10° SE 21:53:45 38° ENE 21:58:26 10° N
Meteor 2-4 Rocket 4.1 21:50:00 10° SSE 21:55:09 45° E 22:00:28 10° NNE
Cosmos 2208 Rocket 4.3 21:51:25 10° SSW 21:56:35 73° WNW 22:01:47 10° NNE
SL-08 RB Rocket 4.5 21:53:12 10° SE 21:57:22 37° ENE 22:01:36 10° N
Lacrosse 5 rocket 2.0 21:53:45 10° NW 21:58:03 50° NE 22:02:07 10° ESE
Aureole 2 Rocket 2.6 21:55:14 10° N 21:58:04 40° ENE 22:00:42 10° SE
ARGOS 3.4 21:57:17 10° SSE 22:02:34 58° ENE 22:07:53 10° N
Cosmos 2322 Rocket 2.4 21:59:58 10° NNW 22:05:35 71° WSW 22:11:09 10° SSE
Cosmos 2322 4.4 22:00:16 10° NNW 22:05:42 42° NE 22:10:59 11° SE
Cosmos 2237 Rocket 4.4 22:06:02 10° N 22:08:37 13° NE 22:11:11 10° ENE
Cosmos 1242 Rocket 3.3 22:06:32 10° NNW 22:10:07 54° W 22:13:38 10° S
SL-16 R/B 2.8 22:10:10 10° NNW 22:15:44 56° WSW 22:21:14 10° S
Cosmos 2150 Rocket 4.1 22:15:15 10° NNW 22:20:41 85° WSW 22:25:54 10° SSE
Cosmos 1340 Rocket 2.8 22:19:48 10° S 22:23:49 64° E 22:27:52 10° NNE
BREEZE-M R/B 2.9 22:22:46 10° W 22:26:41 56° NNW 22:29:14 10° ENE
MetOp-B 4.1 22:23:56 10° SSE 22:29:16 82° ENE 22:34:39 10° NNW
Cosmos 540 Rocket 3.8 22:24:38 10° S 22:29:34 47° ESE 22:34:31 10° NNE
Cosmos 1025 Rocket 4.4 22:27:27 15° SE 22:29:52 23° E 22:33:20 10° NE
Cosmos 2034 Rocket 4.2 22:29:35 10° SSE 22:35:32 54° E 22:41:31 10° NNE
Cosmos 1937 Rocket 4.4 22:31:11 10° NNW 22:36:03 44° WSW 22:40:53 10° S
Cosmos 2237 4.3 22:30:51 10° NNW 22:36:36 69° ENE 22:41:04 17° SE
Cosmos 1464 Rocket 4.0 22:31:58 10° S 22:38:19 77° E 22:44:43 10° N
Cosmos 1455 Rocket 3.3 22:35:43 10° NNW 22:40:04 67° W 22:44:20 10° S
Cosmos 1763 Rocket 4.1 22:35:19 10° SW 22:40:33 60° WNW 22:45:47 10° NNE
SPOT 5 3.1 22:37:55 18° SE 22:41:03 49° ENE 22:45:31 10° N
USA 245 3.4 22:38:32 18° SSE 22:41:13 72° ENE 22:45:49 10° N
Terra 3.1 22:38:20 15° ESE 22:41:21 28° ENE 22:45:22 10° N
Cosmos 841 Rocket 3.7 22:41:49 10° SSW 22:47:03 74° WNW 22:52:22 10° NNE
Meteor 1-15 Rocket 4.2 22:42:21 10° N 22:48:07 78° E 22:52:34 17° SSE
Abrixas rocket 2.9 22:48:16 10° W 22:51:26 52° N 22:54:37 10° ENE
Helios 1A 3.0 22:51:28 21° SSE 22:54:07 71° ENE 22:58:18 10° N
CZ-2C R/B 4.3 22:50:32 10° NE 22:54:20 18° E 22:56:06 16° ESE
Cosmos 2360 Rocket 2.4 22:49:02 10° NNW 22:54:38 66° WSW 22:58:58 17° S
Okean 2 3.6 22:52:12 20° SSE 22:54:47 51° E 22:58:52 10° NNE
Cosmos 372 Rocket 3.9 22:49:57 10° NNW 22:55:07 78° ENE 22:58:30 22° SSE
BREEZE M DEB (TANK) 3.8 22:47:36 10° WNW 22:56:25 40° SW 22:58:38 21° S
USA 234 3.3 22:51:09 10° NE 22:57:46 87° NW 23:04:21 10° SW
Cosmos 2219 Rocket 2.9 22:52:42 10° NNW 22:58:02 43° ENE 23:01:38 19° ESE
ISS -1.6 22:55:33 10° WNW 22:58:24 27° N 23:01:16 10° NE
Tiangong 2 1.2 22:56:04 10° W 22:59:09 54° S 23:00:16 33° SE
Cosmos 2333 4.4 22:53:53 10° NNW 22:59:32 65° ENE 23:03:12 22° SE
Shenzhou-11 Module 3.6 22:58:42 10° WSW 23:00:59 20° SSW 23:01:05 20° SSW
Iridium 40 4.1 23:03:55 50° E 23:03:55 50° E 23:06:13 10° NNE
Cosmos 1356 Rocket 3.6 23:05:19 24° SSE 23:07:41 57° E 23:11:56 10° NNE
COSMOS 2455 4.3 23:10:58 17° ESE 23:11:30 17° ESE 23:15:13 10° ENE
ERS-1 Rocket 3.5 23:07:43 15° S 23:11:42 54° W 23:16:38 10° NNW
Helios 1B rocket 2.4 23:13:03 10° NNE 23:17:11 67° ESE 23:19:16 28° S
SJ 16-02 1.9 23:13:35 10° NNW 23:17:56 53° WSW 23:20:27 23° S
CZ-2C R/B 3.7 23:16:09 25° SE 23:19:04 49° ENE 23:24:31 10° N
Cosmos 2228 4.2 23:20:40 10° NNE 23:24:28 30° ENE 23:25:44 25° ESE
Cosmos 2333 Rocket 2.4 23:18:58 10° NNW 23:24:38 61° ENE 23:27:41 27° SE
SL-16 R/B 4.2 23:22:35 10° N 23:26:35 19° NE 23:30:33 10° E
COSMOS 2428 2.7 23:21:55 10° NNW 23:27:38 84° WSW 23:30:38 29° SSE
CENTAUR R/B 3.3 23:22:20 10° WSW 23:28:20 55° NW 23:35:19 10° NNE
Okean 1-7 Rocket 3.8 23:27:08 33° SSE 23:28:52 55° E 23:33:20 10° NNE
SPOT 1/Viking Rocket 3.8 23:26:19 23° S 23:29:33 62° WSW 23:34:41 10° NNW
IGS 5A 3.4 23:28:32 35° SSE 23:30:13 89° E 23:34:25 10° NNW
Meteor 1-29 2.9 23:26:53 10° NNE 23:30:23 72° ESE 23:31:16 47° S
CZ-4C R/B 2.9 23:23:43 10° NW 23:30:54 87° SW 23:35:47 26° SSE
Cosmos 1726 Rocket 4.0 23:28:13 10° N 23:32:30 46° ENE 23:33:54 34° SE
H-2A R/B 3.6 23:29:03 10° SSW 23:33:16 28° W 23:37:37 10° NW
Cosmos 1125 Rocket 4.0 23:30:09 10° NNW 23:35:15 53° WSW 23:38:03 25° S
Cosmos 1980 4.3 23:30:54 10° NNW 23:36:21 46° ENE 23:39:12 26° ESE
Cosmos 783 Rocket 4.5 23:33:59 25° S 23:37:02 70° ESE 23:42:21 10° NNE
Lacrosse 5 rocket 2.6 23:33:25 10° WNW 23:37:03 27° SW 23:38:05 24° SSW
Cosmos 1092 Rocket 4.1 23:35:51 10° N 23:42:13 81° W 23:45:54 27° S
ERBS 4.4 23:39:27 10° NNW 23:42:15 23° NNE 23:44:10 15° ENE
Cosmos 2297 Rocket 3.1 23:44:24 27° ESE 23:45:11 28° ESE 23:49:56 10° NE
Cosmos 1953 4.2 23:44:16 10° NNE 23:47:05 18° ENE 23:47:46 18° E
Cosmos 2227 Rocket 2.9 23:47:43 31° SE 23:48:46 33° ESE 23:53:46 10° NE
Cosmos 2058 Rocket 3.5 23:45:13 10° N 23:49:37 50° ENE 23:50:47 40° ESE
Cosmos 2237 Rocket 2.5 23:48:20 10° NNW 23:53:59 58° ENE 23:56:28 32° SE
Cosmos 1174 3.8 23:51:35 10° NNW 23:54:32 46° NE 23:54:42 45° ENE
